This is the latest recevied weather packets stored in our database for station/object VU3IZK-13. If no packets are shown the sender has not sent any weather packets the latest 10 day(s).
| Time | Temp. | Humidity | Pressure | Rain* | Wind** | Luminosity | Snow |
|---|---|---|---|---|---|---|---|
| 1777529723 | 31.67° C | 41% | 0 hPa | 0 mm | - | - | - |
| 1777528824 | 31.67° C | 39% | 0 hPa | 0 mm | - | - | - |
| 1777527945 | 31.67° C | 38% | 0 hPa | 0 mm | - | - | - |
| 1777527026 | 31.67° C | 37% | 0 hPa | 0 mm | - | - | - |
| 1777526125 | 31.67° C | 35% | 0 hPa | 0 mm | - | - | - |
| 1777525204 | 31.11° C | 36% | 0 hPa | 0 mm | - | - | - |
| 1777524304 | 30.56° C | 32% | 0 hPa | 0 mm | - | - | - |
| 1777523428 | 30° C | 34% | 0 hPa | 0 mm | - | - | - |
| 1777522529 | 29.44° C | 35% | 0 hPa | 0 mm | - | - | - |
| 1777521608 | 29.44° C | 37% | 0 hPa | 0 mm | - | - | - |
| 1777520707 | 29.44° C | 35% | 0 hPa | 0 mm | - | - | - |
| 1777519830 | 28.89° C | 34% | 0 hPa | 0 mm | - | - | - |
| 1777518931 | 28.33° C | 38% | 0 hPa | 0 mm | - | - | - |
| 1777518010 | 27.78° C | 37% | 0 hPa | 0 mm | - | - | - |
| 1777517107 | 26.67° C | 40% | 0 hPa | 0 mm | - | - | - |
| 1777516229 | 25.56° C | 47% | 0 hPa | 0 mm | - | - | - |
| 1777515327 | 25° C | 52% | 0 hPa | 0 mm | - | - | - |
| 1777514444 | 24.44° C | 52% | 0 hPa | 0 mm | - | - | - |
| 1777513521 | 23.89° C | 51% | 0 hPa | 0 mm | - | - | - |
| 1777511737 | 22.78° C | 57% | 0 hPa | 0 mm | - | - | - |
| 1777509915 | 21.67° C | 61% | 0 hPa | 0 mm | - | - | - |
| 1777506318 | 21.11° C | 66% | 0 hPa | 0 mm | - | - | - |
| 1777499104 | 21.11° C | 77% | 0 hPa | 0 mm | - | - | - |
| 1777496422 | 21.67° C | 77% | 0 hPa | 0 mm | - | - | - |
| 1777495523 | 21.67° C | 76% | 0 hPa | 0 mm | - | - | - |
* Rain latest hour (hover to see other rain measurements)
** Current wind speed in m/s (hover to see current wind gust speed)